Location: Nelson
(41.2830°S, 173.2830°E)
Time: 02:54:01
(UTC+12:00)

Meteor 1-25 Rocket - Pass Details

Date: 24 January 2019
Orbit: 837 x 891 km, 81.2° (Epoch: 19 April)

Event Time Altitude Azimuth Distance (km) Brightness Sun altitude
Rises 23:15:24 0° 190° (S) 3,519 8.5 -21.0°
Reaches altitude 10° 23:17:52 10° 188° (S) 2,579 7.6 -21.2°
Maximum altitude 23:23:47 84° 99° (E) 909 4.2 -21.9°
Enters shadow 23:25:46 44° 15° (NNE) 1,219 4.6 -22.1°
